0 RELAY 1 (A-15) 1 00503U 62068A 25258.22860852 -.00000014 00000-0 00000-0 0 9991 2 00503 47.5212 56.8993 2837538 245.3060 313.5041 7.78160117784078 0 TELSTAR 2 (A-41) 1 00573U 63013A 25258.41374289 .00000010 00000-0 32764-3 0 9994 2 00573 42.7644 274.5342 4012781 176.5146 345.5823 6.39268138568571 0 VELA 2 1 674U 63039A 25233.70687258 -.00000484 00000-0 00000+0 0 9992 2 674 46.9199 107.0652 5061239 83.4591 359.8149 0.22192263 50173 0 VELA 1 1 00692U 63039C 25231.55172954 -.00000605 00000-0 00000-0 0 9991 2 00692 27.9818 45.8257 5578653 215.3524 0.0919 0.22046177 12502 0 RELAY 2 1 00737U 64003A 25258.12399928 -.00000025 00000-0 00000-0 0 9993 2 00737 46.4566 295.3213 2599524 72.7288 313.9280 7.39533958665741 0 ELEKTRON 1 1 00746U 64006A 25258.28684946 .00001393 00000-0 37416-3 0 9992 2 00746 60.8686 200.6422 3003483 156.5703 220.7072 9.09871399 42211 0 ELEKTRON 3 1 00829U 64038A 25258.27855536 .00001629 00000-0 45126-3 0 9992 2 00829 60.8194 221.4240 2943298 275.4165 52.2433 9.20439177990123 0 OPS 3662 (VELA 3) 1 00836U 64040A 25261.01495214 .00000361 00000-0 00000-0 0 9993 2 00836 51.6574 124.3085 4693388 286.6790 0.5498 0.23916435 10346 0 OPS 3674 (VELA 4) 1 00837U 64040B 25262.92162981 -.00000043 00000-0 00000-0 0 9995 2 00837 48.8122 128.5457 4989559 257.8266 0.6792 0.24001943 54075 0 LES 2 1 01360U 65034B 25257.45574233 -.00000043 00000-0 00000-0 0 9990 2 01360 32.0816 182.4350 3958688 168.4300 204.3957 4.64830035 25048 0 INTELSAT 2-F1 1 02514U 66096A 25258.44123325 -.00000556 00000-0 00000-0 0 9992 2 02514 17.1784 108.0400 6370981 85.0871 339.9120 2.00491749 89301 0 OV1-13 1 03173U 68026A 25258.22434788 .00000079 00000-0 11124-3 0 9994 2 03173 99.9489 305.5982 3855974 151.9212 235.8411 7.25753933518257 0 OV1-14 1 03174U 68026B 25258.63238106 .00000161 00000-0 26426-3 0 9999 2 03174 100.0056 276.1991 4009051 145.1316 346.8397 6.96684796457191 0 OV1-19 1 03825U 69025C 25258.41474674 .00000242 00000-0 13766-3 0 9993 2 03825 104.7064 76.3717 2679141 325.0677 20.0181 9.58081045958928 0 COSMOS 520 1 06192U 72072A 25257.49736558 .00000106 00000-0 00000-0 0 9991 2 06192 71.7597 235.7192 4868968 193.4167 321.0154 2.01345658389634 0 OPS 7724 1 06791U 73056A 25249.54764709 .00000086 00000-0 -45289-2 0 9993 2 06791 62.3540 67.6021 7278532 278.0240 12.4089 2.00677687 43929 0 COSMOS 606 1 06916U 73084A 25258.49600222 .00000463 00000-0 00000-0 0 9994 2 06916 72.6845 81.6221 5080634 130.9150 289.5773 2.00789463379954 0 MOLNIYA 2-9 1 07276U 74026A 25255.59998507 -.00000039 00000-0 00000-0 0 9995 2 07276 64.3892 62.7419 6624452 265.7412 22.0504 2.45095096278214 0 MOLNIYA 2-10 1 07376U 74056A 25257.24027244 -.00000305 00000-0 00000-0 0 9990 2 07376 65.3968 328.5687 6798083 273.0465 17.5540 2.01206484374181 0 COSMOS 706 1 07625U 75007A 25258.31659813 -.00000550 00000-0 00000-0 0 9998 2 07625 64.0536 182.8642 6854101 3.1791 359.4871 2.00924286230929 0 MOLNIYA 1-29 1 07780U 75036A 25256.58825042 -.00000043 00000-0 -18136-1 0 9996 2 07780 63.7655 92.1176 6822223 280.7296 14.7159 2.00592114369370 0 MOLNIYA 2-14 1 08195U 75081A 25253.87010671 -.00000848 00000-0 00000-0 0 9992 2 08195 64.2701 64.2682 6806159 285.6432 13.3854 2.02067459366765 0 MOLNIYA 1-32 1 08601U 76006A 25256.87864450 .00001294 00000-0 00000-0 0 9992 2 08601 63.6320 162.7260 6707034 278.5242 16.2667 1.99991511 76352 0 COSMOS 862 1 09495U 76105A 25258.21916305 .00000735 00000-0 00000-0 0 9990 2 09495 70.1230 54.0036 6327943 190.4850 144.7672 2.00367360236145 0 MOLNIYA 1-36 1 09880U 77021A 25257.28387784 .00000965 00000-0 00000-0 0 9990 2 09880 63.6384 138.5278 6688576 283.5003 14.7960 2.00827671253132 0 ESA/GOES 1 09931U 77029A 25257.35873056 -.00000629 00000-0 00000-0 0 9993 2 09931 27.0898 89.6775 6567675 231.3494 49.3957 1.96178724346441 0 COSMOS 931 1 10150U 77068A 25257.17804920 .00000582 00000-0 00000-0 0 9992 2 10150 70.2269 68.7123 5469917 332.0982 6.9932 2.00509874353229 0 MOLNIYA 3-8 1 10455U 77105A 25254.83863058 -.00000810 00000-0 00000-0 0 9994 2 10455 63.7270 204.8704 6797846 279.2308 15.3173 2.00515933350865 0 MOLNIYA 1-40 1 10925U 78055A 25256.99919292 -.00000446 00000-0 00000-0 0 9997 2 10925 63.9727 251.2592 6908796 276.9520 15.2189 2.00548471346443 0 MOLNIYA 3-10 1 11057U 78095A 25258.50536444 -.00000114 00000-0 -11720-2 0 9997 2 11057 63.6783 339.8264 5596924 314.0162 11.7387 4.09910980432344 0 GORIZONT 1 1 11158U 78118A 25258.20429502 -.00000271 00000-0 00000-0 0 9998 2 11158 12.0106 162.5910 3111956 345.2659 7.4671 1.00298397120188 0 AYAME 1 (ECS 1) 1 11261U 79009A 25258.06993486 -.00000089 00000-0 00000-0 0 9991 2 11261 10.0711 318.3262 3656648 110.8425 270.6956 1.68582734171511 0 COSMOS 1109 1 11417U 79058A 25251.89327866 -.00000570 00000-0 00000-0 0 9990 2 11417 70.5686 206.1974 5846186 206.0106 106.4943 2.01384236228176 0 SATCOM 3 1 11635U 79101A 25258.46899566 -.00000206 00000-0 00000-0 0 9998 2 11635 8.4659 108.9300 4788884 55.4157 220.5566 1.82525591218954 0 AYAME 2 (ECS-2) 1 11715U 80018A 25258.31891006 -.00000128 00000-0 00000-0 0 9994 2 11715 9.2783 56.2123 4386387 256.6585 43.2255 1.75494159230204 0 COSMOS 1191 1 11871U 80057A 25256.90676855 -.00000620 00000-0 00000-0 0 9993 2 11871 65.7178 97.3255 6679919 22.8412 356.6937 2.00881845237918 0 MOLNIYA 3-13 1 11896U 80063A 25257.24861473 .00000127 00000-0 20315-3 0 9992 2 11896 63.7383 328.5736 7297728 277.9316 12.3573 2.00575853330864 0 COSMOS 1217 1 12032U 80085A 25252.05228973 .00000929 00000-0 00000-0 0 9991 2 12032 70.0488 191.6714 5610866 249.9442 43.4319 2.00960141276565 0 COSMOS 1223 1 12078U 80095A 25258.45743538 .00000015 00000-0 00000-0 0 9997 2 12078 72.9340 55.5057 4736621 312.3861 275.1591 2.00802492328117 0 OPS 5805 1 12093U 80100A 25251.76540146 -.00000226 00000-0 00000-0 0 9993 2 12093 63.9773 227.3846 6522187 270.3779 20.7676 2.00647895 46515 0 KIKU 3 (ETS 4) 1 12295U 81012A 25256.44286842 .00020973 00000-0 20667-2 0 9993 2 12295 28.4760 305.3258 4803359 238.6110 65.6457 5.98788132624407 0 COSMOS 1247 1 12303U 81016A 25241.27129284 -.00000613 00000-0 00000-0 0 9995 2 12303 68.7660 15.3886 6290417 347.6723 2.0713 2.02496530329262 0 COSMOS 1261 1 12376U 81031A 25258.18722632 .00000585 00000-0 00000-0 0 9993 2 12376 68.5944 105.8018 6007516 357.7421 0.5867 2.00884885221952 0 CAT 3 1 12546U 81057C 25258.24498538 .00002531 00000-0 63403-3 0 9994 2 12546 10.1896 88.0645 5692102 322.2196 8.9770 4.48765234402680 0 DYNAMICS EXPLORER 1 1 12624U 81070A 25253.41005202 .00000006 00000-0 -33287-3 0 9995 2 12624 90.9000 44.9668 6188714 295.3272 14.2713 3.52886811715280 0 COSMOS 1285 1 12627U 81071A 25258.23371367 -.00000270 00000-0 00000-0 0 9999 2 12627 68.2926 108.7806 6158846 359.1211 139.4810 1.98055822241051 0 COSMOS 1305 1 12818U 81088A 25257.98653321 -.00000012 00000-0 -66074-4 0 9995 2 12818 62.7608 144.6120 4870369 263.1450 41.4102 5.46237466877723 0 COSMOS 1317 1 12933U 81108A 25258.54692748 .00000076 00000-0 00000-0 0 9996 2 12933 71.4869 121.6164 4780462 329.3575 268.9121 2.00213857320766 0 CAT 4 1 13011U 81122B 25257.51844767 .00002146 00000-0 46904-3 0 9992 2 13011 10.5749 306.3702 6524878 349.0851 1.8391 3.28473927351786 0 MOLNIYA 1-52 1 13012U 81123A 25256.73098284 .00001666 00000-0 51624-2 0 9992 2 13012 61.5446 112.1652 7326768 271.2688 13.9753 2.00667133320333 0 MOLNIYA 1-53 1 13070U 82015A 25257.93252724 -.00001381 00000-0 44013-2 0 9990 2 13070 63.2165 72.6781 7061537 283.7432 12.2838 2.00675877319048 0 COSMOS 1341 1 13080U 82016A 25242.67604959 -.00000104 00000-0 00000-0 0 9996 2 13080 71.2255 16.0026 5838339 318.5238 9.4195 2.00642110228927 0 COSMOS 1348 1 13124U 82029A 25257.51932597 -.00000485 00000-0 00000-0 0 9992 2 13124 71.8606 155.5127 5008407 340.4722 247.0454 2.00294378317869 0 COSMOS 1367 1 13205U 82045A 25257.85480905 .00000093 00000-0 00000-0 0 9992 2 13205 71.9181 76.9829 4989308 331.0786 8.6141 2.00494329317295 0 COSMOS 1382 1 13295U 82064A 25258.15094637 -.00000862 00000-0 00000-0 0 9994 2 13295 62.3470 181.5828 7108149 40.0871 354.8366 2.00679464275048 0 MOLNIYA 3-20 1 13875U 83015A 25255.82167210 -.00000260 00000-0 -33140-1 0 9999 2 13875 62.0460 181.7681 7073404 269.7030 16.4927 2.00831366247469 0 MOLNIYA 1-56 1 13890U 83019A 25257.15976494 -.00000140 00000-0 00000-0 0 9994 2 13890 62.5597 203.5656 7045999 273.6213 15.3328 2.00091794310290 0 ASTRON 1 13901U 83020A 25260.08695793 .00000334 00000-0 00000-0 0 9999 2 13901 79.0321 60.9675 5897421 45.2365 359.6042 0.24283123 10489 0 OV2-3 1 13912U 65108V 25257.68961823 .00010418 00000-0 10567-2 0 9995 2 13912 26.6202 7.8750 5265844 32.8465 350.9648 5.21998574556174 0 OSCAR 10 1 14129U 83058B 25256.06052969 .00000019 00000-0 00000-0 0 9998 2 14129 26.3356 266.5389 6068993 38.4794 352.1757 2.05870262289785 0 COSMOS 1481 1 14182U 83070A 25258.25860362 .00000778 00000-0 00000-0 0 9990 2 14182 70.8338 266.2060 5579467 239.3251 54.3082 2.03574099234502 0 STTW-T1 1 14670U 84008A 25258.34274791 .00001403 00000-0 61512-3 0 9993 2 14670 36.1380 246.8931 2979500 266.3401 59.6711 9.03648731359230 0 COSMOS 1541 1 14790U 84024A 25258.27634228 -.00000013 00000-0 00000-0 0 9990 2 14790 71.7723 159.1596 5247010 348.5147 205.5550 2.00542254276424 0 COSMOS 1547 1 14884U 84033A 25258.10859353 -.00000524 00000-0 00000-0 0 9991 2 14884 73.1244 343.8001 5680493 260.8495 34.3184 2.00546364243817 0 COSMOS 1581 1 15095U 84071A 25256.99609793 .00000811 00000-0 00000-0 0 9992 2 15095 66.9773 41.4619 6726936 8.1178 358.6702 1.99689696274950 0 CCE 1 (AMPTE) 1 15199U 84088A 25258.04070745 -.00000144 00000-0 00000-0 0 9992 2 15199 4.6300 316.2326 7667204 344.6854 33.6231 1.53317625196219 0 USA 4 1 15226U 84091A 25257.77322969 .00001154 00000-0 00000-0 0 9995 2 15226 62.9136 112.0890 6486077 283.0608 16.2962 2.00874893 45186 0 COSMOS 1596 1 15267U 84096A 25257.86937982 .00000716 00000-0 00000-0 0 9995 2 15267 65.7975 155.9480 6635936 28.2697 355.6563 2.00447767300481 0 MOLNIYA 1-63 1 15429U 84124A 25256.93273377 .00000281 00000-0 00000-0 0 9992 2 15429 63.4458 29.6773 7242347 256.7653 19.1217 2.00910933298513 0 MOLNIYA 3-24 1 15738U 85040A 25253.07451950 .00000127 00000-0 -13571-2 0 9999 2 15738 62.3874 208.3941 6859296 254.4803 25.4904 2.55671383334053 0 COSMOS 1661 1 15827U 85049A 25255.76648058 .00000830 00000-0 00000-0 0 9993 2 15827 67.8081 124.6601 5681854 67.9565 341.6634 2.00619431294727 0 COSMOS 1675 1 15952U 85071A 25256.49395987 .00000039 00000-0 00000-0 0 9999 2 15952 65.6226 93.6714 6205040 281.0910 19.0319 3.14131578381007 0 COSMOS 1684 1 16064U 85084A 25242.71784880 .00000711 00000-0 00000-0 0 9999 2 16064 67.5297 97.3274 5108984 102.0126 317.4588 2.00643931292494 0 COSMOS 1687 1 16103U 85088A 25248.92699025 .00000141 00000-0 00000-0 0 9999 2 16103 71.4488 22.6628 5621153 347.4098 224.6826 2.00683745292546 0 COSMOS 1698 1 16183U 85098A 25258.21952896 -.00000139 00000-0 00000-0 0 9997 2 16183 71.2456 115.9257 5296531 356.9621 216.1360 2.00685860292220 0 MOLNIYA 3-27 1 16393U 85117A 25258.18678679 .00000160 00000-0 75112-2 0 9993 2 16393 62.2885 266.6227 7143239 248.9773 25.5131 2.12407386299364 0 COSMOS 1729 1 16527U 86011A 25258.39264760 .00000045 00000-0 00000-0 0 9995 2 16527 70.8211 198.2959 4389936 47.3963 79.6249 2.00477936290241 0 VIKING 1 16614U 86019B 25258.39929937 -.00000127 00000-0 -14723-2 0 9996 2 16614 98.7721 206.4591 4691100 30.8034 101.9892 5.50584423795120 0 COSMOS 1761 1 16849U 86050A 25257.99132788 -.00000355 00000-0 00000-0 0 9999 2 16849 70.2527 58.4004 5728871 11.3802 144.5644 2.00635772287071 0 MOLNIYA 3-31 1 17328U 87008A 25255.22577598 .00000379 00000-0 49546-3 0 9998 2 17328 62.4720 316.9156 7420767 256.6799 18.4704 2.00564371279596 0 COSMOS 1851 1 18103U 87050A 25254.35114080 .00000097 00000-0 00000-0 0 9999 2 18103 70.8639 197.3338 4496253 47.0399 91.6562 2.00446429280209 0 COSMOS 1903 1 18701U 87105A 25257.91000833 .00000076 00000-0 00000-0 0 9996 2 18701 68.9499 204.5445 4522506 102.4528 310.2388 2.00399033277150 0 COSMOS 1922 1 18881U 88013A 25255.54376625 .00000086 00000-0 00000-0 0 9997 2 18881 68.6759 88.6069 5818037 50.2027 348.2244 2.00304849274969 0 MOLNIYA 1-71 1 18946U 88017A 25257.11594646 -.00000717 00000-0 41616-3 0 9996 2 18946 62.1100 300.2090 7431197 263.8036 15.5496 2.00268136274825 0 USA 31 1 19458U 88077A 25258.03479987 -.00000266 00000-0 -11514-1 0 9995 2 19458 27.3010 88.6125 7284218 51.9173 353.8868 2.00899724 9797 0 COSMOS 1974 1 19554U 88092A 25258.55060245 .00000074 00000-0 00000-0 0 9991 2 19554 70.0060 194.8122 4361873 71.2481 59.9242 2.00515939270623 0 COSMOS 1977 1 19608U 88096A 25258.60468270 -.00000715 00000-0 00000-0 0 9994 2 19608 69.1112 128.4490 5376458 57.3949 61.0619 2.00413177270297 0 MOLNIYA 1-75 1 19807U 89014A 25248.94622650 .00001341 00000-0 00000-0 0 9991 2 19807 63.7744 167.9779 6683541 257.6989 25.5590 2.00323271267587 0 HIPPARCOS 1 20169U 89062B 25258.17552985 .00000025 00000-0 14922-2 0 9994 2 20169 6.8499 62.1162 7191191 137.4811 309.3230 2.26369785263120 0 COSMOS 2050 1 20330U 89091A 25257.27915227 -.00000562 00000-0 00000-0 0 9995 2 20330 65.0883 104.0482 6083724 166.6664 222.3678 2.00594709262279 0 COSMOS 2063 1 20536U 90026A 25258.12859762 -.00000632 00000-0 00000-0 0 9997 2 20536 66.7104 185.4031 5613148 135.7940 286.0433 1.99596975258563 0 COSMOS 2076 1 20596U 90040A 25243.00160946 .00000102 00000-0 00000-0 0 9990 2 20596 68.6669 210.9895 4883994 113.9866 304.8187 2.00684096258931 0 USA 59 1 20641U 90050A 25257.86753879 .00000022 00000-0 00000-0 0 9995 2 20641 63.3858 238.2588 4054102 266.2412 47.8486 6.02583996 29740 0 COSMOS 2087 1 20707U 90064A 25258.22696160 -.00000634 00000-0 00000-0 0 9993 2 20707 67.7606 204.0918 6085695 31.5916 353.5631 2.00759629257312 0 CRRES 1 20712U 90065A 25257.22462619 .00000305 00000-0 84851-3 0 9992 2 20712 18.0944 59.0140 7072104 66.4863 350.2648 2.49723275302805 0 MOLNIYA 1-80 1 21118U 91012A 25254.65983199 .00000999 00000-0 00000-0 0 9991 2 21118 64.9052 218.6155 6334527 260.6354 27.4662 2.05235498255248 0 MOLNIYA 3-40 1 21196U 91022A 25257.01111684 .00000629 00000-0 00000-0 0 9993 2 21196 64.7202 212.5394 6402848 258.1162 28.2482 2.03018943253731 0 MOLNIYA 1-81 1 21426U 91043A 25256.91067637 .00000161 00000-0 00000-0 0 9999 2 21426 63.4246 207.9253 6739111 260.1181 23.6498 2.00590985250925 0 MOLNIYA 3-41 1 21706U 91065A 25258.07682198 .00001327 00000-0 54827-3 0 9992 2 21706 63.3784 5.9513 7411412 251.3408 21.2117 2.04366861251092 0 USA 72 1 21775U 91076A 25257.18896994 -.00000023 00000-0 00000-0 0 9996 2 21775 63.3883 323.8724 3367388 272.7376 49.9901 5.53395670 27280 0 STTW-5 1 21833U 91088A 25255.94446763 .00000055 00000-0 00000-0 0 9995 2 21833 31.1547 134.1275 6602135 104.5802 332.3157 2.27647609352924 0 GEOTAIL 1 22049U 92044A 25251.80090546 -.00000630 00000-0 00000-0 0 9993 2 22049 45.3398 0.4778 5872386 263.7357 0.7014 0.19263608 15237 0 MOLNIYA 3-42 1 22178U 92067A 25253.63977223 -.00000021 00000-0 00000-0 0 9994 2 22178 64.5511 82.4231 6862295 249.9506 28.3055 2.20432452106090 0 COSMOS 2232 1 22321U 93006A 25258.13316772 -.00000707 00000-0 00000-0 0 9995 2 22321 67.3089 198.9642 5571129 130.9491 292.7079 2.00600911238885 0 ARASENE 1 22654U 93031B 25258.55744916 -.00000150 00000-0 00000-0 0 9995 2 22654 4.8150 55.1185 2835817 317.9843 21.7758 1.42203069163516 0 MOLNIYA 1-86 1 22671U 93035A 25258.33354256 .00001473 00000-0 89470-3 0 9997 2 22671 62.9493 261.2922 4906088 27.5676 351.6138 5.64421929419109 0 MOLNIYA 1-87 1 22949U 93079A 25253.64065503 -.00001242 00000-0 00000-0 0 9990 2 22949 65.0032 313.8725 6895175 272.7066 16.8844 2.02875171 98892 0 VEP 1 22979U 94007B 25257.95948042 .00000283 00000-0 36470-3 0 9997 2 22979 28.4633 114.4655 7251776 141.2290 304.0482 2.25907458260075 0 SJ-4 1 22996U 94010A 25254.02051598 .00000302 00000-0 10874-3 0 9998 2 22996 29.0217 128.4474 5564447 259.2755 36.6023 4.63998637434467 0 STRV 1A 1 23125U 94034B 25255.14282521 .00002077 00000-0 52527-3 0 9997 2 23125 7.5337 66.9002 6431123 224.2563 61.4632 3.40897235324683 0 COSMOS 2286 1 23194U 94048A 25256.81215794 .00000753 00000-0 00000-0 0 9996 2 23194 66.8036 166.7743 5575660 125.4762 300.0536 2.00390939227929 0 ETS 6 1 23230U 94056A 25258.32686917 -.00000107 00000-0 00000-0 0 9997 2 23230 13.2448 262.4486 5002196 140.2662 249.6365 1.67087659189642 0 MOLNIYA 1-88 1 23420U 94081A 25257.26962143 .00000022 00000-0 00000-0 0 9991 2 23420 64.3138 288.0014 5878948 262.1133 31.3319 3.34495902153332 0 MOLNIYA 3-47 1 23642U 95042A 25257.21333570 .00000473 00000-0 00000-0 0 9996 2 23642 64.9894 297.3192 6824010 272.7753 17.3789 2.01976172220943 0 ISO 1 23715U 95062A 25257.75778103 .00000005 00000-0 79051-3 0 9999 2 23715 4.6341 318.6945 8368131 303.2684 3.3791 1.02101051110882 0 POLAR 1 23802U 96013A 25255.76077948 .00000245 00000-0 00000-0 0 9992 2 23802 79.5453 230.1277 6199659 218.4506 74.9285 1.29846611141259 0 CHINASAT 7 1 24282U 96048A 25255.98615318 .00000000 00000-0 00000-0 0 9995 2 24282 16.7516 193.3340 3513250 256.7857 68.9917 1.06658183115766 0 MAGION 5 1 24292U 96050B 25252.31876632 .00000028 00000-0 -29421-4 0 9994 2 24292 62.6947 266.4649 5618004 264.6219 32.4383 4.14735610439578 0 INTERBALL AURORA 1 24293U 96050C 25257.22273622 .00000033 00000-0 00000-0 0 9993 2 24293 62.6948 264.5918 5617252 264.8084 32.3317 4.14736492439872 0 HALCA (MUSES B) 1 24720U 97005A 25258.13155513 .00000109 00000-0 35283-3 0 9996 2 24720 31.2059 90.8451 5992276 310.6895 290.8867 3.84627026399072 0 COSMOS 2340 1 24761U 97015A 25258.32634886 .00000427 00000-0 00000-0 0 9997 2 24761 65.2659 172.5823 6533405 155.3450 260.2277 2.00526663208323 0 COSMOS 2342 1 24800U 97022A 25253.77326270 -.00000457 00000-0 00000-0 0 9992 2 24800 67.5188 271.0656 6636387 134.2531 304.3610 1.99596105206837 0 MOLNIYA 1-90 1 24960U 97054A 25258.20761801 .00000038 00000-0 30899-3 0 9996 2 24960 64.3914 259.8283 5981024 285.0100 19.1172 3.18690241245794 0 MAQSAT H 1 25023U 97066A 25258.50319559 -.00000047 00000-0 85379-3 0 9996 2 25023 7.7136 128.2138 6492123 219.8492 46.4390 3.10808394315354 0 MAQSAT B 1 25024U 97066B 25258.12712182 -.00000082 00000-0 57125-3 0 9991 2 25024 7.7132 132.4952 6515232 210.0014 352.1768 3.08934593314535 0 TEAMSAT 1 25025U 97066C 25254.03333882 -.00000066 00000-0 -21040-3 0 9994 2 25025 7.5500 169.2136 6515360 137.6099 354.9796 3.08010919126599 0 EQUATOR S 1 25068U 97075B 25257.62213427 -.00000412 00000-0 86843-2 0 9996 2 25068 6.1603 280.4412 8220433 278.3764 6.0845 1.07775800109490 0 COMETS 1 25175U 98011A 25258.45739141 -.00000090 00000-0 00000-0 0 9995 2 25175 30.1731 31.7889 5293770 113.9629 309.0841 4.38935562450792 0 COSMOS 2351 1 25327U 98027A 25250.83529001 -.00001087 00000-0 00000-0 0 9994 2 25327 63.6074 153.6805 7151064 179.7565 181.1681 2.00544070200302 0 MOLNIYA 1-91 1 25485U 98054A 25256.20216720 -.00000031 00000-0 00000-0 0 9995 2 25485 64.5623 325.6750 6765383 286.4633 13.4899 2.36442874207025 0 MAQSAT/ARIANE 5 1 25503U 98059A 25257.73558398 -.00000196 00000-0 -62952-3 0 9990 2 25503 7.5900 350.4691 7011248 326.5382 4.5367 2.24575105220772 0 SEA LAUNCH DEMO 1 25661U 99014A 25258.29805082 -.00000153 00000-0 16636-2 0 9993 2 25661 1.1366 57.8853 7158715 132.1902 317.4579 2.23255069215960 0 USA 142 1 25669U 99017A 25257.91649787 -.00000254 00000-0 -92224-3 0 9991 2 25669 28.7490 159.9217 7070924 350.3824 1.2391 2.33039752 11875 0 MOLNIYA 3-50 1 25847U 99036A 25254.84135918 .00000009 00000-0 00000-0 0 9999 2 25847 63.5065 184.1283 6787601 279.3651 15.3876 2.00591386191834 0 CXO 1 25867U 99040B 25259.35019206 .00000941 00000-0 00000-0 0 9993 2 25867 51.3649 125.8051 8285650 310.4265 0.3581 0.37804868 16283 0 XMM 1 25989U 99066A 25259.11506150 .00000093 00000-0 00000-0 0 9997 2 25989 65.8345 286.5932 4789703 69.7680 0.0793 0.50133345 21630 0 COSMOS 2368 1 26042U 99073A 25258.30731952 -.00000636 00000-0 00000-0 0 9990 2 26042 67.2761 316.3115 6349160 167.1257 223.3645 2.00623715188416 0 FREGAT RB/CLUSTER 2 1 26106U 00015A 25257.37439269 .00000082 00000-0 93769-4 0 9993 2 26106 65.1035 238.9478 5455878 279.3202 25.7178 4.61249814425487 0 IMAGE 1 26113U 00017A 25258.16567372 -.00000423 00000-0 -16761-1 0 9993 2 26113 93.9291 311.3963 7626303 320.0914 3.9773 1.68663704156866 0 CLUSTER II-FM7 1 26410U 00041A 25260.84373051 .00001144 00000-0 00000-0 0 9994 2 26410 146.0733 17.7134 8590429 233.1461 0.0674 0.44789085 19089 0 CLUSTER II-FM5 1 26463U 00045A 25256.35818407 .00008496 00000-0 00000-0 0 9993 2 26463 147.9057 92.6176 9113884 312.2268 1.6919 0.42922709 18948 0 CLUSTER II-FM8 1 26464U 00045B 25260.97668006 .00001170 00000-0 00000-0 0 9997 2 26464 146.3412 18.1863 8595184 233.4772 0.1006 0.44418015 19082 0 AMSAT OSCAR 40 1 26609U 00072B 25258.19687325 -.00000234 00000-0 00000-0 0 9995 2 26609 9.7942 31.0253 7953966 94.2650 349.6747 1.25589235114052 0 STRV 1C 1 26610U 00072C 25258.50267699 .00000228 00000-0 -21607-2 0 9991 2 26610 6.4589 95.9873 7343514 6.5573 359.4524 2.03535970184495 0 STRV 1D 1 26611U 00072D 25257.89927998 .00000201 00000-0 25755-2 0 9996 2 26611 6.4320 97.3859 7346138 3.7384 359.7381 2.03403048 84889 0 LRE 1 26898U 01038A 25258.11261705 .00006794 00000-0 64427-3 0 9992 2 26898 28.1296 223.3058 7012269 92.7315 342.2106 2.64999366213424 0 MDS 1 1 27367U 02003A 25258.58531096 .00013651 00000-0 89336-3 0 9997 2 27367 28.5112 355.4046 4200950 343.5726 6.1527 7.06981212373261 0 DASH/VEP 3 1 27368U 02003B 25258.26430939 .00001382 00000-0 38134-2 0 9994 2 27368 29.1104 350.3700 7148513 144.5198 296.1710 2.36859398199507 0 INTEGRAL 1 27540U 02048A 25258.19879528 .00000345 00000-0 00000-0 0 9995 2 27540 91.1474 0.1951 8618517 268.5236 49.8745 0.37582614 25606 0 DOUBLESTAR (TC-2) 1 28382U 04029A 25257.04812570 .00002278 00000-0 81016-3 0 9994 2 28382 87.8625 241.5002 7074492 184.1987 163.0058 2.53016086173562 0 DELTA 4 DEMO SPACECRAFT 1 28500U 04050A 25257.34936832 -.00000128 00000-0 00000-0 0 9995 2 28500 14.4864 306.7447 2790120 6.6456 68.4506 1.41309963106993 0 SLOSHSAT 1 28544U 05005C 25258.37320632 .00004062 00000-0 11520-2 0 9994 2 28544 6.9108 131.5343 6957724 9.0176 358.9487 2.69384053183750 0 MAQSAT/ARIANE 5 1 28545U 05005D 25256.98997879 .00001576 00000-0 37907-3 0 9998 2 28545 6.6524 178.9456 7023460 275.5964 14.9205 2.61149370181238 0 THEMIS A 1 30580U 07004A 25256.55284965 .00000031 00000-0 10733-2 0 9991 2 30580 3.7709 165.8738 8451857 111.5212 348.5722 0.87834881 38844 0 THEMIS D 1 30797U 07004D 25257.96099442 .00000007 00000-0 00000-0 0 9998 2 30797 3.6284 92.8346 8403868 188.3522 62.5070 0.87836189 38651 0 THEMIS E 1 30798U 07004E 25258.49746950 .00000011 00000-0 00000-0 0 9996 2 30798 0.8679 121.8465 8404532 160.1466 245.4438 0.87837466 63497 0 SPIRALE A 1 33751U 09008C 25258.27657183 .00006073 00000-0 18003-2 0 9997 2 33751 1.9946 181.6814 5595814 30.5127 352.5633 4.62653379249405 0 SPIRALE B 1 33752U 09008D 25258.23819278 .00012246 00000-0 23185-2 0 9995 2 33752 1.8144 174.5210 6719047 35.1290 354.5597 3.02163357159704 0 EUTE W3B 1 37206U 10056A 25258.16409624 .00010497 00000-0 18218-2 0 9997 2 37206 2.1529 193.4004 6916504 137.2091 303.8872 2.76099419134538 0 MERIDIAN 3 1 37212U 10058A 25258.17348192 .00000089 00000-0 00000-0 0 9993 2 37212 63.4710 120.6320 6671326 261.8307 23.4684 2.00619216108946 0 MERIDIAN 4 1 37398U 11018A 25257.68274493 .00000770 00000-0 12300-2 0 9997 2 37398 62.1542 119.0377 7411147 262.0354 16.4172 2.00564865105235 0 TACSAT 4 1 37818U 11052A 25258.14104636 .00005038 00000-0 13779-2 0 9998 2 37818 62.8362 308.0601 4664586 275.0708 35.2666 6.13147668307888 0 RBSP A 1 38752U 12046A 25257.99710485 .00380890 -55443-6 23427-2 0 9998 2 38752 9.6047 241.4340 5886866 313.5156 10.5135 4.33620325138153 0 RBSP B 1 38753U 12046B 25257.58987229 .00005597 00000-0 78534-3 0 9996 2 38753 10.2549 326.8779 6408375 144.0487 283.8938 3.46436005134956 0 MERIDIAN 6 1 38995U 12063A 25257.91118686 -.00000431 00000-0 00000-0 0 9996 2 38995 64.6506 33.7102 7273874 230.5852 39.2146 2.00676661 93980 0 MERIDIAN 7 1 40296U 14069A 25258.00712284 .00000067 00000-0 00000-0 0 9990 2 40296 63.4782 243.2980 6777428 272.1141 17.9314 2.00622402 79717 0 MMS 1 1 40482U 15011A 25258.58341435 -.00002334 00000-0 00000-0 0 9994 2 40482 67.4801 353.0967 8602254 161.5999 353.0723 0.28474988 1381 0 MMS 2 1 40483U 15011B 25258.58341435 -.00002335 00000-0 00000-0 0 9996 2 40483 67.4837 353.0947 8604866 161.5972 353.0815 0.28474917 1385 0 MMS 3 1 40484U 15011C 25258.58341435 -.00002335 00000-0 00000-0 0 9997 2 40484 67.4872 353.1045 8603747 161.6068 353.0506 0.28474892 1388 0 MMS 4 1 40485U 15011D 25258.58341435 -.00002335 00000-0 00000-0 0 9998 2 40485 67.4768 353.0911 8603943 161.6153 353.0212 0.28474589 1384 0 ARASE (ERG) 1 41896U 16080A 25256.75784299 -.00000042 00000-0 45198-3 0 9991 2 41896 31.4790 118.4215 6974277 238.4347 35.7259 2.57144916 81165 0 COSMOS 2518 1 42719U 17027A 25252.35838788 .00000394 00000-0 -15621-1 0 9999 2 42719 63.0651 283.7467 7123249 272.8843 14.9693 2.00716846 60760 0 PODSAT 1 43229U 18023B 25258.42051103 .00082997 00000-0 91018-3 0 9999 2 43229 26.8439 5.6098 3729260 189.2888 161.3018 8.07634417169854 0 MERIDIAN 8 1 44453U 19046A 25255.58105457 .00000098 00000-0 00000-0 0 9991 2 44453 62.8944 85.6480 6967359 274.0694 15.8200 2.00615696 44776 0 CHINASAT 18 1 44493U 19053A 25258.31955110 .00036563 -46026-6 36753-3 0 9994 2 44493 28.2854 205.7742 6495180 35.7847 353.8478 3.40880465 59830 0 COSMOS 2541 1 44552U 19065A 25258.09757218 .00000108 00000-0 00000-0 0 9991 2 44552 62.7264 182.3609 6482740 272.4331 20.3005 2.00599886 43702 0 MERIDIAN 9 1 45254U 20015A 25257.30618462 -.00000018 00000-0 00000-0 0 9999 2 45254 65.3690 348.9115 6930146 282.3643 13.6183 2.00609692 40751 0 COSMOS 2546 1 45608U 20031A 25253.36067237 .00000265 00000-0 00000-0 0 9993 2 45608 63.1223 101.0795 6934817 265.2234 19.4331 2.00626246 38850 0 ARKTIKA-M 1 1 47719U 21016A 25246.38975133 -.00000134 00000-0 00000-0 0 9995 2 47719 63.1607 97.4931 7149599 268.8202 16.1856 2.00602919 33033 0 SHIYAN 10 (SY-10) 1 49258U 21087A 25258.24697339 .00000608 00000-0 00000-0 0 9995 2 49258 63.0972 252.5201 6968054 269.7762 17.2522 2.00634558 29015 0 COSMOS 2552 1 49503U 21113A 25258.25817414 -.00000225 00000-0 00000-0 0 9993 2 49503 62.9074 233.0868 6554957 272.5588 19.5811 2.00605282 27884 0 MERIDIAN 10 1 52145U 22030A 25257.80785821 .00000210 00000-0 00000-0 0 9997 2 52145 62.6570 169.8515 6740311 273.2384 17.8873 2.00595279 25506 0 COSMOS 2563 1 54223U 22145A 25257.00133170 -.00000666 00000-0 00000-0 0 9995 2 54223 63.5564 316.3759 7151187 269.1122 16.0806 2.00626200 21028 0 SHIYAN 10 02 (SY-10 02) 1 54878U 22178A 25252.01704406 .00000866 00000-0 00000-0 0 9990 2 54878 64.0203 354.0252 6997979 268.6087 17.6408 2.00640040 10916 0 INMARSAT 6-F2 1 55683U 23022A 25258.55822917 -.00000062 00000-0 00000-0 0 9996 2 55683 4.8291 34.3280 3067005 212.1709 177.6333 1.00958508 7784 0 ARKTIKA-M 2 1 58584U 23198A 25245.63669142 .00000141 00000-0 00000-0 0 9994 2 58584 63.2042 185.8992 6865010 268.5190 18.6674 2.00594607 12556 0 ASBM-1 1 60422U 24143A 25243.65418871 -.00000049 00000-0 00000-0 0 9998 2 60422 62.6373 56.6611 5481566 268.7204 31.2902 1.50427878 7266 0 ASBM-2 1 60423U 24143B 25251.96432912 -.00000002 00000-0 00000-0 0 9993 2 60423 62.5998 56.4143 5483627 268.7398 31.2939 1.50425493 7363 0 TJS-13 1 62188U 24227A 25232.32322359 .00000480 00000-0 00000-0 0 9997 2 62188 63.5574 75.0697 7077766 269.5601 16.4819 2.00654507 5216 0 PROBA-3 CSC 1 62256U 24233A 25251.56644776 -.00000168 00000-0 -11973-2 0 9995 2 62256 59.4202 121.4823 8048044 197.0700 96.3158 1.22075125 3389 0 ASTRANIS UTILITYSAT 1 62454U 24252A 25257.85640392 -.00000345 00000-0 00000-0 0 9997 2 62454 8.8266 339.3453 7509078 221.5564 46.1612 1.00293319 2666 0 BLUE RING PATHFINDER 1 62720U 25011A 25258.29865353 -.00000065 00000-0 00000-0 0 9991 2 62720 29.8979 285.5976 4880795 84.1335 327.3583 3.84307914 9302 0 NVS-02 1 62850U 25020A 25258.29458838 .00000087 00000-0 28429-3 0 9992 2 62850 21.1230 359.6163 7358579 328.6938 3.4698 2.17448701 4994 0 COSMOS 2589 1 64467U 25131A 25254.28923698 -.00000245 00000-0 00000+0 0 9995 2 64467 0.7583 282.4375 3651248 173.3130 98.0745 1.00247954 836 0 PSN N5 1 65588U 25205A 25255.10218750 .00000041 00000-0 00000-0 0 9994 2 65588 26.4759 204.2219 5387164 174.0939 9.9928 5.04113332 14